Location: Newark
(16.3678°N, 77.8722°E)
Time: 12:30:27
(UTC+00:00)

S-56A Canister/Altair - Pass Details

Date: 19 December 2019
Orbit: 634 x 2498 km, 38.9° (Epoch: 25 January)

Event Time Altitude Azimuth Distance (km) Brightness Sun altitude
Rises 07:22:11 0° 310° (NW) 6,031 11.9 49.2°
Reaches altitude 10° 07:26:22 10° 316° (NW) 5,115 11.6 49.0°
Maximum altitude 07:40:43 47° 26° (NNE) 2,981 10.6 48.0°
Drops below altitude 10° 07:53:08 10° 97° (E) 4,491 11.4 46.9°
Sets 07:56:30 0° 103° (ESE) 5,269 11.7 46.6°
